Hundvaag 1 weather for Aug 1994
Month no. 86
Obs.
Da.
Temp. Dew Point Precip. Wind
Speed
Wind gusts Cloud cover Press. Humidity Wind dir. Sunny OPT
01.08.1994 19,1   0,0             1  
02.08.1994 17,9   11,9             1  
03.08.1994 16,0   15,1             1  
04.08.1994 16,0   2,9             1  
05.08.1994 18,3   1,2                
06.08.1994 15,3   12,9             1  
07.08.1994 14,0   1,3             1  
08.08.1994 13,0   0,0             1  
09.08.1994 13,7   0,0             1  
10.08.1994 14,4   0,0             1  
11.08.1994 15,0   0,0             1  
12.08.1994 14,8   0,4                
13.08.1994 12,8   18,1             1  
14.08.1994 11,8   0,1             1  
15.08.1994 11,0   0,0             1  
16.08.1994 9,6   0,0             1  
17.08.1994 12,3   0,0             1  
18.08.1994 13,9   8,5             1  
19.08.1994 13,8   1,1             1  
20.08.1994 14,1   11,2             1  
21.08.1994 14,9   2,0             1  
22.08.1994 12,8   0,5             1  
23.08.1994 11,8   0,0             1  
24.08.1994 16,1   0,0             1  
25.08.1994 12,2   2,7             1  
26.08.1994 12,3   12,4             1  
27.08.1994 12,9   16,0             1  
28.08.1994 10,9   14,0             1  
29.08.1994 9,5   23,6             1  
30.08.1994 10,2   1,2             1  
31.08.1994 8,0   1,0             1  
Avrg/Sum 13,5   158,1             29